Theta_e
302 302 302 303 303 304 304 306 307 310 313 319 324 325 325 324 324 322 322 321 320 320 321 320 320 321 320 321 320 318 316 316 312 310 301 301 300 302 297 299 299 300 300
301 301 301 301 302 302 303 304 306 307 310 312 316 320 323 324 324 324 322 322 320 320 320 321 320 321 320 321 320 319 318 318 315 312 298 295 297 298 298 295 295 296 297
300 299 299 299 300 301 301 303 304 305 306 308 311 314 317 320 322 323 324 324 322 322 322 321 321 321 319 320 319 319 319 318 317 315 301 292 291 291 289 290 290 290 292
298 297 297 297 299 299 301 301 301 302 303 304 306 309 313 316 319 321 322 323 323 323 323 322 322 321 320 319 318 318 318 316 315 311 293 290 289 287 289 287 286 287 287
296 295 295 296 297 298 298 298 298 299 300 301 303 306 309 313 316 317 319 321 322 322 322 322 321 317 307 314 318 317 317 314 311 304 292 288 286 285 289 287 290 287 286
294 293 295 295 294 295 295 294 295 295 296 298 299 302 305 309 307 304 308 318 318 318 318 319 319 301 302 301 303 306 314 314 308 304 302 296 292 292 290 289 287 285 285
292 292 293 292 291 291 291 291 291 291 293 293 295 297 299 303 303 302 300 311 315 317 316 316 315 314 302 312 304 303 303 305 309 308 303 300 296 292 292 288 288 287 287
289 289 288 288 288 287 287 287 288 289 289 290 291 293 295 297 298 299 299 306 311 313 315 314 313 311 306 307 310 307 307 307 306 307 309 303 303 297 295 293 291 283 282
287 286 286 286 286 286 285 285 286 287 287 288 289 290 291 292 295 296 298 303 305 306 308 310 311 310 303 299 306 303 299 290 296 299 301 301 298 295 291 289 286 286 280
286 286 286 285 285 285 285 286 286 285 287 287 288 289 290 291 294 295 297 298 300 302 303 300 294 304 301 298 303 300 291 289 289 288 290 292 292 291 291 293 289 288 280
287 286 286 285 285 284 285 285 285 285 286 286 287 289 289 290 292 294 295 296 297 299 301 300 296 295 296 297 299 297 295 289 289 287 285 285 285 285 284 286 287 287 282
286 286 286 285 284 285 284 285 285 283 284 286 286 287 289 290 291 293 294 295 297 295 296 299 297 293 295 296 295 300 294 289 286 286 285 285 283 281 281 280 280 280 281
286 286 286 285 285 284 284 284 284 285 284 285 286 286 288 289 291 293 293 293 293 293 294 296 294 292 293 294 293 291 287 287 286 286 284 281 280 279 278 278 278 278 277
285 286 287 286 286 285 286 285 284 284 285 285 286 286 287 288 290 291 290 291 289 291 291 291 291 291 292 289 288 288 287 287 287 284 281 279 278 278 277 278 276 276 274
284 285 286 286 286 285 285 284 284 286 286 286 286 287 287 287 289 292 291 290 289 290 286 287 286 286 285 285 285 285 284 284 284 281 280 279 278 277 277 278 277 276 274
281 282 284 284 284 284 283 283 287 287 288 289 289 289 289 290 291 291 291 292 292 291 286 286 285 286 285 285 285 285 285 284 282 281 280 279 277 277 276 276 276 276 274
276 278 279 281 282 282 282 281 281 284 288 288 289 290 290 291 291 291 291 292 292 291 288 286 286 286 286 285 285 284 282 282 281 280 279 278 277 276 275 275 274 274 273
273 275 277 278 280 280 280 280 281 281 281 283 287 288 290 290 290 290 291 291 287 289 288 287 286 286 285 284 284 282 280 280 280 279 278 278 277 275 274 273 274 272 271
271 273 275 276 277 278 278 278 279 279 279 281 283 286 287 290 290 290 291 288 286 286 287 286 286 285 283 282 281 280 280 279 279 278 278 277 276 275 274 273 273 271 270
269 271 274 274 274 274 274 274 275 276 278 279 281 284 287 287 286 286 288 287 287 287 286 286 285 283 282 280 280 279 278 278 277 277 276 276 275 275 273 272 271 270 269
269 269 269 270 270 270 270 271 273 274 276 278 281 284 287 287 286 286 286 286 286 286 285 283 282 281 280 280 279 278 278 277 276 276 275 274 274 273 272 271 269 269 268
266 266 266 266 267 268 269 270 271 273 276 278 280 284 288 287 286 286 286 285 284 283 283 282 281 280 280 279 279 277 276 275 275 274 273 272 271 271 270 269 267 267 266
264 264 265 265 266 267 268 270 271 273 275 278 281 284 286 285 284 281 279 278 278 277 278 278 278 277 278 278 277 276 274 273 273 273 271 270 269 268 268 267 266 264 263
264 264 264 265 266 267 268 270 272 274 277 281 284 282 274 273 272 271 272 272 272 273 273 273 273 272 272 272 272 272 271 271 271 271 270 268 266 266 265 264 263 262 261
266 266 267 268 269 271 272 274 276 276 273 272 271 270 270 269 269 269 269 269 269 269 269 269 269 268 268 268 267 268 269 268 268 268 267 266 265 264 263 262 261 260 259
266 267 267 269 270 270 270 270 269 269 268 268 268 268 268 267 267 267 267 266 266 266 265 265 265 265 265 265 265 266 267 267 265 266 265 264 263 262 261 260 259 259 257
Wind_Speed
6 5 6 7 8 7 6 7 8 9 10 12 13 14 14 15 17 19 21 21 21 20 20 20 22 20 15 14 13 13 14 14 16 7 2 3 5 7 6 5 6 7 6
5 6 7 7 7 7 8 10 9 10 10 12 13 14 15 16 14 18 21 19 22 21 22 22 22 16 21 19 15 17 16 15 14 17 4 3 4 5 6 7 5 5 6
5 6 7 7 7 9 10 12 12 12 12 12 12 14 15 15 16 15 19 20 21 22 22 20 21 20 19 15 17 16 14 13 14 12 6 3 1 3 4 2 3 3 3
4 5 6 7 8 9 10 11 12 13 13 13 14 15 15 16 16 16 16 19 21 20 20 21 20 21 21 19 19 19 15 12 12 9 5 4 3 2 4 4 3 3 3
3 5 6 6 6 7 9 10 12 13 13 14 15 15 15 14 12 15 15 17 19 20 20 19 19 19 21 22 15 17 16 14 12 9 5 3 4 4 10 6 6 5 2
3 6 6 6 6 7 9 11 12 13 14 14 14 14 16 12 16 17 16 16 16 17 19 19 19 14 17 21 22 20 21 19 16 12 12 10 10 7 7 8 6 4 6
5 6 7 7 7 7 7 9 11 13 13 14 15 14 17 17 18 17 17 15 17 17 17 16 16 14 14 18 23 26 25 25 27 20 18 15 13 14 13 11 8 4 4
6 6 7 7 8 7 7 8 9 10 12 13 15 14 16 15 20 18 18 16 17 19 18 17 18 17 14 17 18 19 20 19 21 17 19 16 15 15 15 11 9 8 6
8 7 8 8 8 7 8 8 9 10 11 11 12 16 17 20 23 21 17 15 17 19 17 16 16 17 17 22 19 17 12 3 2 8 8 14 14 22 18 13 8 11 2
8 8 7 7 8 9 9 10 10 9 12 10 14 13 17 21 25 24 18 11 16 13 14 13 17 18 19 23 20 13 13 12 11 9 8 12 14 19 25 10 14 13 5
8 8 8 8 8 8 10 8 10 11 12 13 15 14 16 15 20 26 22 14 12 13 12 11 9 16 19 21 26 14 18 14 15 13 8 11 6 8 6 6 4 10 6
8 10 10 9 7 6 10 11 10 8 12 14 14 16 11 12 16 20 21 23 21 15 15 11 10 16 20 21 19 17 17 18 10 10 10 7 10 9 7 8 9 10 7
11 13 13 10 8 8 10 13 11 10 10 13 11 13 15 10 10 16 21 24 24 17 13 14 12 13 14 12 13 24 22 11 10 11 11 9 8 8 10 9 12 14 13
15 16 14 14 14 11 10 10 12 12 11 12 13 13 14 13 11 9 9 11 16 16 13 9 10 11 11 9 13 14 7 10 13 13 12 10 11 9 8 6 8 8 8
16 16 16 13 14 13 12 12 13 15 14 14 14 12 13 16 13 14 14 11 8 9 4 3 5 7 9 10 9 8 8 9 8 10 13 12 11 9 9 7 8 5 5
18 15 14 13 12 12 13 15 22 29 31 31 35 27 17 29 33 29 27 26 22 15 5 8 9 9 12 13 13 13 10 11 11 12 12 12 12 10 10 8 6 6 8
18 18 15 15 14 14 14 15 19 17 27 29 32 34 35 31 31 29 29 26 24 19 9 10 10 11 11 11 12 12 10 10 14 12 13 12 12 10 12 9 8 8 7
18 23 16 15 15 15 15 15 14 15 19 17 20 25 27 28 29 29 27 22 10 17 11 10 11 10 10 10 9 9 11 12 11 11 11 12 11 12 11 9 8 9 8
16 14 15 15 14 15 14 15 16 18 18 19 17 21 20 25 27 27 28 14 13 13 12 10 10 10 11 11 10 11 12 11 11 12 10 10 11 11 10 9 8 10 11
16 22 18 12 13 14 14 15 16 17 17 17 17 16 14 11 11 12 12 13 12 11 10 11 10 11 12 13 13 12 12 12 12 11 11 11 10 10 10 10 9 9 7
12 14 19 15 15 15 15 16 16 16 16 17 17 19 27 14 13 11 11 12 12 11 10 11 11 10 12 12 14 13 13 12 12 11 11 11 11 11 9 8 8 8 9
14 15 14 14 14 15 15 15 16 16 17 17 17 19 27 14 12 10 10 8 6 7 8 10 10 10 12 13 13 14 14 13 12 11 11 11 11 11 9 9 9 9 9
14 15 14 14 14 18 16 16 16 16 17 18 18 14 11 11 7 4 5 5 6 7 7 9 11 11 10 12 12 13 14 12 11 12 12 12 11 10 9 10 10 9 8
15 15 15 14 14 14 15 16 15 19 19 17 15 7 5 6 7 8 8 8 9 9 8 10 11 15 15 13 11 11 11 11 10 11 15 13 12 12 10 10 9 10 9
15 14 14 13 14 14 15 15 14 12 5 1 2 5 7 8 9 9 8 9 9 10 10 10 11 16 18 20 17 17 19 19 14 14 10 13 14 14 11 9 10 9 10
12 12 10 9 8 7 6 4 3 3 3 4 5 6 7 9 9 9 9 10 11 11 12 10 15 21 21 18 20 21 21 20 16 17 12 12 12 11 10 11 13 9 10
Wind_Direction
359 340 341 322 309 297 285 278 279 285 281 274 267 256 243 234 229 230 231 230 229 231 229 231 231 227 226 218 214 216 222 222 229 211 154 156 159 176 165 171 166 184 185
358 357 339 327 323 320 314 305 290 286 289 288 282 269 261 252 239 231 235 233 231 231 232 232 233 226 227 222 214 218 219 222 227 232 148 160 174 184 176 171 176 176 177
17 353 335 332 330 325 324 324 317 307 301 296 288 280 273 264 256 246 239 237 238 233 232 231 232 229 225 223 223 217 221 218 226 224 181 141 164 151 134 124 158 156 175
9 347 325 319 323 323 321 320 318 315 308 302 294 287 278 271 261 256 249 246 244 244 238 235 232 231 228 221 222 221 216 211 216 200 169 157 156 143 132 154 165 231 155
354 331 307 301 303 309 316 316 314 311 306 302 298 293 287 276 269 260 253 252 249 251 246 241 235 233 231 223 218 219 212 217 209 197 179 153 162 157 188 165 174 174 137
315 294 287 293 299 303 312 315 313 310 309 307 302 296 293 284 274 259 251 258 251 247 250 247 241 229 227 221 217 220 212 212 200 194 197 204 200 186 166 170 142 156 182
276 279 281 284 284 284 295 306 307 308 309 306 301 299 293 289 287 274 257 258 261 253 245 246 241 232 223 227 227 224 220 215 209 198 202 198 191 185 167 167 176 167 166
274 269 270 267 262 267 275 283 291 302 306 307 303 298 294 290 291 291 279 268 263 259 255 248 242 234 220 220 230 228 230 223 213 204 209 203 198 173 174 173 170 93 65
264 259 255 252 262 266 269 274 275 284 288 288 293 298 294 290 290 285 288 283 267 261 258 249 240 238 221 212 223 224 220 231 106 187 188 173 162 150 142 126 152 129 125
259 252 249 249 253 266 269 277 276 263 275 279 286 283 285 287 292 284 271 273 272 266 257 251 236 237 221 213 218 210 190 191 149 120 121 131 146 154 154 156 151 152 138
260 263 260 251 253 246 271 269 269 271 277 277 280 279 274 273 283 283 277 267 264 268 262 252 241 239 241 215 213 203 205 163 148 125 127 113 138 109 68 76 115 143 131
266 270 265 256 250 253 267 282 278 268 275 281 283 285 275 270 264 276 266 259 264 265 263 262 250 223 228 218 211 215 160 149 137 123 128 143 128 107 92 90 86 77 65
280 280 277 267 257 257 270 282 286 277 271 277 275 282 288 280 273 271 261 262 260 258 261 258 238 220 214 198 173 149 151 152 145 145 133 136 103 101 97 87 79 81 71
284 284 283 279 278 266 267 270 272 270 267 268 273 276 281 284 280 280 272 270 261 257 261 230 196 174 162 140 144 148 156 160 152 140 132 112 113 125 123 121 112 107 91
287 285 281 275 274 278 265 263 262 262 254 264 265 267 275 280 277 280 276 270 259 244 162 177 170 161 148 149 154 148 135 129 139 128 131 128 133 131 127 122 119 118 107
289 286 281 279 275 272 272 278 263 263 262 256 262 261 267 263 277 280 277 262 251 202 204 198 190 186 174 169 167 158 152 146 141 137 130 136 139 142 129 115 118 111 129
283 285 283 277 274 273 272 275 282 275 266 266 263 265 263 260 267 269 271 256 242 211 221 210 203 188 182 174 167 160 144 147 138 137 139 140 137 131 128 127 123 131 128
282 280 278 276 274 273 273 273 271 273 281 277 260 259 262 257 258 258 261 251 238 216 216 209 202 187 175 163 158 142 133 131 136 134 135 135 136 130 130 132 140 138 132
282 279 278 275 274 276 278 277 273 272 270 271 279 272 263 257 251 251 256 230 217 214 207 196 190 174 160 145 133 130 131 131 128 127 129 131 131 127 131 135 133 134 136
276 270 269 277 278 274 270 269 268 266 267 266 267 265 272 260 246 253 237 221 217 212 203 185 174 165 152 146 135 135 126 129 129 128 134 132 124 128 130 136 135 145 136
284 285 278 276 272 269 266 263 264 264 265 265 264 266 261 248 248 242 228 217 210 200 183 167 157 150 139 143 134 133 132 128 126 131 130 124 127 125 124 127 137 130 124
282 281 277 272 271 269 265 262 263 262 263 263 265 264 259 242 239 233 217 203 184 168 157 151 143 141 144 138 135 129 125 127 127 126 126 123 117 116 126 131 128 122 125
277 276 274 270 267 267 265 261 260 260 263 263 264 262 249 232 225 160 122 108 111 109 117 124 120 117 115 114 117 122 127 129 129 131 127 120 122 128 131 132 130 125 126
276 270 268 267 267 264 264 264 261 261 260 264 269 252 128 122 116 112 111 111 108 103 106 109 108 113 108 104 102 104 108 111 116 119 124 128 126 125 124 122 120 124 122
279 276 273 271 271 272 273 270 270 276 277 280 112 111 110 108 108 104 102 102 101 101 96 100 103 106 105 105 105 107 110 108 110 118 120 118 119 123 122 118 124 118 120
295 292 296 301 296 295 299 316 335 3 38 57 78 90 98 101 100 100 102 102 101 93 94 91 95 98 99 97 104 108 109 111 112 116 115 120 121 118 118 121 122 126 131